Weather History for Biloxi, MS

Change the Weather History Date:

Wednesday, February 20, 2013

  Actual Average Record
Temperature  
Mean Temperature 50 °F -  
Max Temperature 58 °F 64 °F 75 °F (1948)
Min Temperature 41 °F 47 °F 30 °F (1958)
Degree Days  
Heating Degree Days 16    
Moisture  
Dew Point 29 °F    
Average Humidity 48    
Maximum Humidity 67    
Minimum Humidity 28    
Precipitation  
Precipitation 0.00 in - - ()
Sea Level Pressure  
Sea Level Pressure 30.18 in    
Wind  
Wind Speed 9 mph (ENE)    
Max Wind Speed 14 mph    
Max Gust Speed -    
Visibility 10 miles    
Events      
Averages and records for this station are not official NWS values.
T = Trace of Precipitation, MM = Missing Value Source: NWS Daily Summary

Daily Weather History Graph

Daily Weather History Graph

Search for Another Location

Airport:

Trip Planner

Search our weather history database for the weather conditions in past years. The results will help you decide how hot, cold, wet, or windy it might be!

Date:

Astronomy

Feb. 20, 2013 Rise Set
Actual Time 6:31 AM CST 5:48 PM CST
Civil Twilight 6:06 AM CST 6:12 PM CST
Nautical Twilight 5:38 AM CST 6:40 PM CST
Astronomical Twilight 5:10 AM CST 7:08 PM CST
Moon 1:21 PM CST (2/20) 2:38 AM CST (2/20)
Length of Visible Light 12h 05m
Length of Day
11h 17m
Waxing Gibbous, 76% of the Moon is Illuminated
Feb 20
Waxing Gibbous
Feb 25
Full
Mar 4
Last Quarter
Mar 11
New
Mar 19
First Quarter

Hourly Weather History & Observations

Time (CST) Temp. Windchill Dew Point Humidity Pressure Visibility Wind Dir Wind Speed Gust Speed Precip Events Conditions
12:58 AM 45.5 °F 41.3 °F 29.5 °F 54% 30.24 in 10.0 mi NNE 8.1 mph - N/A   Clear
1:58 AM 43.9 °F 38.8 °F 29.5 °F 57% 30.23 in 10.0 mi NNE 9.2 mph - N/A   Clear
2:58 AM 42.1 °F 37.1 °F 29.3 °F 61% 30.22 in 10.0 mi NNE 8.1 mph - N/A   Clear
3:58 AM 43.0 °F 36.4 °F 28.0 °F 56% 30.22 in 10.0 mi NE 12.7 mph - N/A   Mostly Cloudy
4:58 AM 41.5 °F 34.2 °F 27.9 °F 58% 30.19 in 10.0 mi NE 13.8 mph - N/A   Scattered Clouds
5:58 AM 42.8 °F 36.6 °F 25.5 °F 51% 30.20 in 10.0 mi ENE 11.5 mph - N/A   Mostly Cloudy
6:58 AM 43.3 °F 38.6 °F 24.8 °F 48% 30.25 in 10.0 mi ENE 8.1 mph - N/A   Scattered Clouds
7:58 AM 43.7 °F 39.7 °F 26.4 °F 51% 30.26 in 10.0 mi NE 6.9 mph - N/A   Scattered Clouds
8:58 AM 45.7 °F 41.5 °F 27.1 °F 48% 30.29 in 10.0 mi NE 8.1 mph - N/A   Clear
9:58 AM 48.4 °F - 24.4 °F 39% 30.27 in 10.0 mi NE 10.4 mph - N/A   Clear
10:55 AM 51.8 °F - 23.0 °F 33% 30.25 in 10.0 mi NNE 10.4 mph - N/A   Clear
11:55 AM 53.6 °F - 24.8 °F 33% 30.22 in 10.0 mi Variable 6.9 mph - N/A   Scattered Clouds
12:55 PM 55.4 °F - 23.0 °F 29% 30.17 in 10.0 mi ESE 6.9 mph - N/A   Partly Cloudy
1:55 PM 57.2 °F - 24.1 °F 28% 30.16 in 10.0 mi ENE 9.2 mph - N/A   Partly Cloudy
1:58 PM 57.2 °F - 24.1 °F 28% 30.16 in 10.0 mi East 8.1 mph - N/A   Clear
2:58 PM 58.1 °F - 25.2 °F 28% 30.12 in 10.0 mi SSE 11.5 mph - N/A   Mostly Cloudy
3:58 PM 55.9 °F - 34.5 °F 45% 30.13 in 10.0 mi SSE 8.1 mph - N/A   Clear
4:58 PM 54.7 °F - 32.9 °F 44% 30.14 in 10.0 mi SSE 8.1 mph - N/A   Clear
5:58 PM 53.4 °F - 33.4 °F 47% 30.14 in 10.0 mi SE 5.8 mph - N/A   Clear
6:58 PM 52.0 °F - 33.1 °F 49% 30.15 in 10.0 mi East 3.5 mph - N/A   Clear
7:58 PM 49.6 °F - 36.3 °F 60% 30.13 in 10.0 mi ENE 3.5 mph - N/A   Clear
8:58 PM 48.2 °F - 37.6 °F 67% 30.12 in 10.0 mi ENE 5.8 mph - N/A   Clear
9:58 PM 47.3 °F - 36.3 °F 66% 30.14 in 10.0 mi East 3.5 mph - N/A   Clear
10:58 PM 49.3 °F - 36.5 °F 61% 30.09 in 10.0 mi East 5.8 mph - N/A   Clear
11:58 PM 48.4 °F - 35.1 °F 60% 30.06 in 10.0 mi ENE 8.1 mph - N/A   Clear